Regional Weather Roundup
Issued by NWS Green Bay, WI

Home | Current Version | Previous Version | Graphics & Text | Print | Product List | Glossary Off
Versions: 1 2 3 4 5 6 7 8 9 10 11 12 13 14 15 16 17 18 19 20 21 22 23 24 25 26 27 28 29 30 31 32 33 34 35 36 37 38 39 40 41 42 43 44 45 46 47 48 49 50

000
ASUS43 KGRB 301901
RWRGRB

NORTH-CENTRAL AND NORTHEAST WISCONSIN REGIONAL WEATHER ROUNDUP
NATIONAL WEATHER SERVICE GREEN BAY WI
200 PM CDT SUN AUG 30 2015

WIZ005-009-010>012-018-019-302000-
NORTH CENTRAL WISCONSIN

CITY           SKY/WX    TMP DP  RH WIND       PRES   REMARKS
IRONWOOD       MOSUNNY   81  63  54 SW12      29.90F
MANITOWISH WTR NOT AVBL
ARBOR VITAE    NOT AVBL
EAGLE RIVER    NOT AVBL
LAND O LAKES   NOT AVBL
RHINELANDER    SUNNY     74  61  63 SW10      30.03F
PHILLIPS       SUNNY     75  65  70 S10G17    30.00F
ANTIGO         NOT AVBL
TOMAHAWK       NOT AVBL
MERRILL        SUNNY     74  64  70 SW6       30.04F
$$

WIZ013-073-302000-
NORTHEAST WISCONSIN

CITY           SKY/WX    TMP DP  RH WIND       PRES   REMARKS
IRON MOUNTAIN  SUNNY     79  61  53 S13       29.98F
MARINETTE      SUNNY     73  63  68 SW12      30.00F
$$

WIZ017-030-035>037-045-302000-
CENTRAL WISCONSIN

CITY           SKY/WX    TMP DP  RH WIND       PRES   REMARKS
MEDFORD        NOT AVBL
WAUSAU         SUNNY     74  62  66 S9        30.02F
MOSINEE        NOT AVBL
MARSHFIELD     SUNNY     76  62  62 S12       30.04F
WISC RAPIDS    SUNNY     74  61  63 SW9       30.05F
STEVENS POINT  NOT AVBL
WAUPACA        NOT AVBL
SHAWANO        NOT AVBL
CLINTONVILLE   CLOUDY    72  61  68 SW8       30.04F
WAUTOMA        NOT AVBL
$$

WIZ038-039-048-051-302000-
FOX VALLEY

CITY           SKY/WX    TMP DP  RH WIND       PRES   REMARKS
NWS GREEN BAY  PTSUNNY   72  63  73 SW10      30.04F
APPLETON       CLOUDY    70  61  73 SW7       30.05S
OSHKOSH        CLOUDY    71  62  73 S7        30.05F
FOND DU LAC    PTSUNNY   72  63  73 VRB7      30.06F
$$

WIZ022-050-052-302000-
EAST CENTRAL WISCONSIN

CITY           SKY/WX    TMP DP  RH WIND       PRES   REMARKS
EPHRAIM        FAIR      71  61  70 SW10      30.02F
STURGEON BAY   PTSUNNY   72  63  73 SW10      30.06S
MANITOWOC      NOT AVBL
SHEBOYGAN      MOSUNNY   72  63  73 SW5       30.05F
$$

LMZ563-521-522-541>543-302000-
LAKESHORE

STATION/POSITION TIME  TEMP    WIND        PRES    VSBY  WAVE
                       AIR SEA DIR/SP/G                  HT/PER
                 (UTC) (F)     (DEG/KT/KT) (MB)    (MI)  (FT/S)
SHEBOYGAN LKSHOR 1800   58     160/  4/  5 1018.5F
NORTHPORT PIER   1800   67     150/  7/ 11 1016.6F
N MID LAKE BUOY  1750   64 65  210/ 12/ 16 1016.9F         1/ 3
S GREEN BAY BUOY 1800   67 64  210/  8/ 10 1018.7
CHAMBERS ISLAND  1800   68     180/  6/ 13 1016.6F
$$


USA.gov is the U.S. government's official web portal to all federal, state and local government web resources and services.